Location: Geçitköy
(36.7327°N, 29.8010°E)
Time: 19:11:28
(UTC+00:00)

Cosmos 1656 Rocket - Pass Details

Date: 12 January 2026
Orbit: 794 x 844 km, 71.1° (Epoch: 10 February)

Event Time Altitude Azimuth Distance (km) Brightness Sun altitude
Rises 15:19:26 0° 336° (NNW) 3,366 6.8 -3.4°
Reaches altitude 10° 15:21:54 10° 335° (NNW) 2,421 6.1 -3.9°
Maximum altitude 15:27:25 75° 251° (WSW) 843 4.0 -4.9°
Drops below altitude 10° 15:32:50 10° 167° (SSE) 2,374 6.2 -5.9°
Sets 15:35:13 0° 165° (SSE) 3,294 6.9 -6.3°
